DW9568 Weather Reports


time (UTC)temp
C
wind
direction
speed
KPH
gust
KPH
rain 1hr
cm
rain 24hr
cm
rain mn
cm
humidity
%
barometer
mb
20260906121504 19 300 0.0 0.0 0.00 0.00 0.00 98 1018.2
20260906120005 19 299 0.0 0.0 0.00 0.00 0.00 98 1018.2
20260906114506 19 299 0.0 0.0 0.00 0.00 0.00 98 1017.7
20260906113100 19 299 0.0 0.0 0.00 0.00 0.00 98 1017.5
20260906111603 19 299 0.0 0.0 0.00 0.00 0.00 98 1017.4
20260906110100 19 299 0.0 0.0 0.00 0.00 0.00 98 1017.4
20260906104625 19 299 0.0 0.0 0.00 0.00 0.00 98 1017.3
20260906103056 18 299 0.0 0.0 0.00 0.00 0.00 98 1017.2
20260906101557 18 299 0.0 0.0 0.00 0.00 0.00 98 1016.9
20260906100053 18 299 0.0 0.0 0.00 0.00 0.00 98 1017.0
20260906094552 18 299 0.0 0.0 0.00 0.00 0.00 98 1016.9
20260906093108 18 299 0.0 0.0 0.00 0.00 0.00 97 1016.7
20260906091551 18 299 0.0 0.0 0.00 0.00 0.00 97 1016.7
20260906090051 18 299 0.0 0.0 0.00 0.00 0.00 97 1016.5
20260906084550 18 299 0.0 0.0 0.00 0.00 0.00 97 1016.7
20260906083049 18 299 0.0 0.0 0.00 0.00 0.00 96 1016.6
20260906081548 18 299 0.0 0.0 0.00 0.00 0.00 95 1016.7
20260906080046 18 299 0.0 0.0 0.00 0.00 0.00 96 1016.6
20260906074545 19 299 0.0 0.0 0.00 0.00 0.00 95 1016.8
20260906073043 19 299 0.0 0.0 0.00 0.00 0.00 95 1016.8
20260906071542 20 299 0.0 0.0 0.00 0.00 0.00 95 1016.8
20260906070039 20 299 0.0 0.0 0.00 0.00 0.00 94 1016.8
20260906064537 20 299 0.0 0.0 0.00 0.00 0.00 94 1016.8
20260906063035 20 299 0.0 0.0 0.00 0.00 0.00 94 1016.9
20260906061535 20 299 0.0 0.0 0.00 0.00 0.00 94 1016.9
20260906060033 20 299 0.0 0.0 0.00 0.00 0.00 94 1016.7
20260906054532 21 298 0.0 0.0 0.00 0.00 0.00 93 1016.8
20260906053031 21 302 0.0 0.0 0.00 0.00 0.00 93 1016.8
20260906051532 21 43 0.0 0.0 0.00 0.00 0.00 93 1016.6
20260906050027 21 43 0.0 0.0 0.00 0.00 0.00 93 1016.6
20260906044525 21 43 0.0 0.0 0.00 0.00 0.00 92 1016.4
20260906043023 21 43 0.0 0.0 0.00 0.00 0.00 93 1016.4
20260906041524 21 43 0.0 0.0 0.00 0.00 0.00 92 1016.2
20260906040018 21 43 0.0 0.0 0.00 0.00 0.00 92 1016.0
20260906034516 21 43 0.0 0.0 0.00 0.00 0.00 91 1015.8
20260906033013 21 43 0.0 0.0 0.00 0.00 0.00 90 1015.5
20260906031513 22 43 0.0 0.0 0.00 0.00 0.00 90 1015.2
20260906030011 22 41 0.0 0.0 0.00 0.00 0.00 90 1015.3
20260906024509 21 23 0.0 0.0 0.00 0.00 0.00 91 1015.3
20260906023018 22 23 0.0 0.0 0.00 0.00 0.00 91 1015.1
20260906021513 22 28 0.0 0.0 0.00 0.00 0.00 91 1015.1
20260906020008 21 35 0.0 0.0 0.00 0.00 0.00 92 1015.2
20260906014507 21 35 0.0 0.0 0.00 0.00 0.00 92 1015.2
20260906013006 22 9 0.0 0.0 0.00 0.00 0.00 91 1015.2
20260906011506 22 15 0.0 0.0 0.00 0.00 0.00 90 1015.1
20260906010005 22 15 0.0 0.0 0.00 0.00 0.00 89 1015.1
20260906004504 23 14 0.0 0.0 0.00 0.00 0.00 88 1014.9
20260906003101 23 39 0.0 0.0 0.00 0.00 0.00 87 1014.8
20260906001600 24 49 0.0 0.0 0.00 0.00 0.00 87 1014.6
20260906000100 25 49 0.0 0.0 0.00 0.00 0.00 86 1014.5
20260905234612 25 55 0.0 0.0 0.00 0.00 0.00 85 1014.5
20260905233058 26 332 0.0 1.6 0.00 0.00 0.00 84 1014.3
20260905231558 26 342 0.0 0.0 0.00 0.00 0.00 82 1013.8
20260905230125 26 335 0.0 0.0 0.00 0.00 0.00 82 1013.8
20260905224556 27 335 0.0 0.0 0.00 0.00 0.00 81 1013.7
20260905223055 27 335 0.0 0.0 0.00 0.00 0.00 80 1013.6
20260905221600 27 335 0.0 0.0 0.00 0.00 0.00 79 1013.6
20260905220053 27 335 0.0 0.0 0.00 0.00 0.00 80 1013.6
20260905214553 27 335 0.0 0.0 0.00 0.00 0.00 80 1013.4
20260905213052 27 333 0.0 0.0 0.00 0.00 0.00 82 1013.5
20260905211557 26 333 0.0 0.0 0.00 0.00 0.00 83 1013.7
20260905210051 26 333 0.0 0.0 0.00 0.00 0.00 82 1013.7
20260905204550 26 333 0.0 0.0 0.00 0.00 0.00 82 1014.0
20260905203055 26 334 0.0 0.0 0.00 0.00 0.00 84 1014.0
20260905201553 25 334 0.0 0.0 0.00 0.00 0.00 86 1014.1
20260905200052 25 334 0.0 0.0 0.00 0.00 0.00 86 1014.2
20260905194547 26 334 0.0 0.0 0.00 0.00 0.00 87 1014.1
20260905193104 25 332 0.0 0.0 0.00 0.00 0.00 88 1014.2
20260905191546 25 330 0.0 0.0 0.00 0.00 0.00 87 1014.2
20260905190046 26 330 0.0 0.0 0.00 0.00 0.00 87 1014.2
20260905184546 26 330 0.0 0.0 0.00 0.00 0.00 86 1014.4
20260905183049 26 330 0.0 0.0 0.00 0.00 0.00 85 1014.4
20260905181544 26 330 0.0 0.0 0.00 0.00 0.00 85 1014.4
20260905180043 26 326 0.0 0.0 0.00 0.00 0.00 86 1014.2
20260905174543 26 326 0.0 0.0 0.00 0.00 0.00 85 1014.2
20260905173044 26 326 0.0 0.0 0.00 0.00 0.00 86 1014.3
20260905171542 27 326 0.0 0.0 0.00 0.00 0.00 85 1014.2
20260905170041 27 326 0.0 0.0 0.00 0.00 0.00 84 1014.2
20260905164539 27 301 0.0 0.0 0.00 0.00 0.00 86 1014.2
20260905163035 26 300 0.0 0.0 0.00 0.00 0.00 89 1014.4
20260905161532 25 299 0.0 0.0 0.00 0.00 0.00 91 1014.3
20260905160031 25 299 0.0 0.0 0.00 0.00 0.00 93 1014.3
20260905154535 24 298 0.0 0.0 0.00 0.00 0.00 94 1014.4
20260905153029 24 298 0.0 0.0 0.00 0.00 0.00 94 1014.3
20260905151526 23 297 0.0 0.0 0.00 0.00 0.00 94 1013.9
20260905150031 23 298 0.0 0.0 0.00 0.00 0.00 94 1013.8
20260905144524 23 298 0.0 0.0 0.00 0.00 0.00 95 1013.6
20260905143024 23 298 0.0 0.0 0.00 0.00 0.00 96 1013.5
20260905141524 23 298 0.0 1.6 0.00 0.00 0.00 96 1013.5
20260905140023 22 321 0.0 0.0 0.00 0.00 0.00 96 1013.6
20260905134523 22 321 0.0 0.0 0.00 0.00 0.00 97 1013.4
20260905133020 22 43 0.0 0.0 0.00 0.00 0.00 97 1013.5
20260905131520 22 49 0.0 0.0 0.00 0.00 0.00 97 1013.3
20260905130019 22 5 0.0 0.0 0.00 0.00 0.00 98 1013.6
20260905124520 22 262 0.0 0.0 0.00 0.00 0.00 98 1013.0
20260905123015 22 261 0.0 0.0 0.00 0.00 0.00 99 1012.7